Hourly Weather Roundup
Issued by NWS Central Illinois

Home | Current Version | Previous Version | Text Only | Print | Product List | Glossary On
Versions: 1 2 3 4 5 6 7 8 9 10 11 12 13 14 15 16 17 18 19 20 21 22 23 24 25 26 27 28 29 30 31 32 33 34 35 36 37 38 39 40 41 42 43 44 45 46 47 48 49 50
000
NZUS43 KILX 291910
HWRILX

AREA WEATHER ROUNDUP
NATIONAL WEATHER SERVICE, LINCOLN IL
200 PM CDT FRI APR 29 2016


CITY           SKY/WX    TMP DP  RH WIND       PRES   REMARKS
BLOOMINGTON    CLOUDY    56  47  71 E7        30.09S
CHAMPAIGN      CLOUDY    58  48  69 NE6       30.07S
DANVILLE       CLOUDY    53  47  78 NE5       30.05F HAZE
DECATUR        CLOUDY    58  49  72 NE6       30.07S
EFFINGHAM      CLOUDY    64  52  65 CALM      30.06S
FLORA          CLOUDY    65  52  62 CALM      30.05S
GALESBURG      CLOUDY    51  43  75 NE7       30.09S
JACKSONVILLE   CLOUDY    56  49  78 NE9       30.07F
LACON          CLOUDY    49  41  74 CALM      30.08S
LAWRENCEVILLE  CLOUDY    66  52  60 E6        30.05R
LITCHFIELD     CLOUDY    60  48  64 CALM      30.05F
$$


CITY           SKY/WX    TMP DP  RH WIND       PRES   REMARKS
LINCOLN        CLOUDY    55  47  75 NE5       30.08S
MACOMB         CLOUDY    52  45  77 CALM      30.11R
MATTOON        CLOUDY    60  50  69 N9        30.05S
MT CARMEL AP   NOT AVBL
OLNEY-NOBLE AP CLOUDY    63  52  67 S3        30.06S
PARIS          PTSUNNY   59  50  72 N5        30.07S
PEORIA         CLOUDY    54  44  69 E7        30.09R
PONTIAC        CLOUDY    52  46  82 NE3       30.09S
RANTOUL        CLOUDY    56  47  73 E5        30.08S
ROBINSON       CLOUDY    65  51  60 CALM      30.06R
SPRINGFIELD    CLOUDY    57  49  74 NE8       30.08S
TAYLORVILLE    CLOUDY    57  50  77 NE7       30.07S
$$

...REGIONAL REPORTS...


CITY           SKY/WX    TMP DP  RH WIND       PRES   REMARKS
CHICAGO O`HARE CLOUDY    49  38  65 N7        30.10F
KANKAKEE       CLOUDY    51  43  74 N9        30.09F
MOLINE         CLOUDY    51  40  65 NE9       30.09F
MOUNT STERLING CLOUDY    53  47  82 NE6       30.07F
MOUNT VERNON   CLOUDY    64  52  63 E5        30.06R
PITTSFIELD     CLOUDY    56  51  82 NE8       30.07F
QUINCY         CLOUDY    54  47  77 NE9       30.06F
ROCKFORD       CLOUDY    48  38  68 E7        30.14S
$$


CITY           SKY/WX    TMP DP  RH WIND       PRES   REMARKS
BURLINGTON     CLOUDY    50  44  80 NE7       30.09S
CEDAR RAPIDS   CLOUDY    49  43  80 NE7       30.09F
DES MOINES     CLOUDY    50  40  68 E9        30.10R
KIRKSVILLE     CLOUDY    53  45  74 E8        30.07S
OTTUMWA        CLOUDY    49  42  77 E8        30.09S
ST LOUIS       CLOUDY    63  49  60 E10       30.03F
$$


CITY           SKY/WX    TMP DP  RH WIND       PRES   REMARKS
TERRE HAUTE    CLOUDY    64  49  57 NE6       30.04S
EVANSVILLE     CLOUDY    66  49  54 CALM      30.06R
INDIANAPOLIS   CLOUDY    62  46  55 CALM      30.03F
LAFAYETTE      CLOUDY    56  47  71 N8        30.06F
MADISON        PTSUNNY   52  39  61 NE13G21   30.10S
MILWAUKEE      PTSUNNY   46  38  73 NE14      30.11R
$$






USA.gov is the U.S. government's official web portal to all federal, state and local government web resources and services.